Location: Mason
(37.5237°N, 89.2543°W)
Time: 07:30:12
(UTC+00:00)

Cosmos 1844 Rocket - Pass Details

Date: 24 January 2021
Orbit: 826 x 843 km, 71.0° (Epoch: 08 March)

Event Time Altitude Azimuth Distance (km) Brightness Sun altitude
Rises 23:43:31 0° 209° (SSW) 3,385 6.7 -6.5°
Reaches altitude 10° 23:45:58 10° 213° (SSW) 2,453 6.0 -7.0°
Maximum altitude 23:51:33 63° 294° (WNW) 934 3.2 -8.0°
Drops below altitude 10° 23:57:09 10° 16° (NNE) 2,461 4.8 -9.1°
Sets 23:59:38 0° 19° (NNE) 3,396 5.5 -9.6°
